Diane G — DIANEG — position and weather

sailwx.info

Track history (hours):
 
Tides and Currents Weather Stations Pressure Air Temp Water Temp Dewpoint Dewpoint Depression Visibility Wind Speed Wind Dir Waves Ship Positions

Diane G

Last reported at 2014-Oct-30 22:11 UTC. Time now 2014-Oct-31 07:01 UTC.
Position N 34°09' W 119°13'.

Length 35 m; draft 2.5 m.

Type: Military. MMSI: 369970281.

Date/timePositionNaut miles runAvg speedWind from/ knotsBaromVisibWave heightAir tempDewpointWater temp
2014-Oct-30 22:11N 34°09' W 119°13'23 4.9
2014-Oct-30 17:29N 33°53' W 119°33'1 0.9
2014-Oct-30 16:32N 33°53' W 119°34'5 4.7
2014-Oct-30 15:33N 33°55' W 119°29'8 7.6
2014-Oct-30 14:28N 34°01' W 119°21'8 8.8
2014-Oct-30 13:33N 34°07' W 119°15'3 0.3
2014-Oct-30 03:09N 34°09' W 119°13'3 4.5
2014-Oct-30 02:32N 34°07' W 119°14'10 9.0
2014-Oct-30 01:28N 33°59' W 119°22'  
2014-Oct-25 10:29N 34°06' W 119°13'17 8.9
2014-Oct-25 08:34N 33°53' W 118°60'11 9.3
2014-Oct-25 07:24N 33°46' W 118°50'8 9.3
2014-Oct-25 06:33N 33°41' W 118°43'10 9.2
2014-Oct-25 05:30N 33°35' W 118°34'9 9.1
2014-Oct-25 04:33N 33°29' W 118°26'9 9.2
2014-Oct-25 03:33N 33°23' W 118°18'8 7.7
2014-Oct-25 02:33N 33°17' W 118°12'3 2.9
2014-Oct-25 01:33N 33°15' W 118°09'52 6.4
2014-Oct-24 17:26N 32°40' W 117°23'6 6.8
2014-Oct-24 16:33N 32°38' W 117°17'6 6.4
2014-Oct-24 15:34N 32°43' W 117°13'2 2.1
2014-Oct-24 14:34N 32°43' W 117°10'0 0.0
2014-Oct-24 13:34N 32°43' W 117°10'1 1.1
2014-Oct-24 12:31N 32°43' W 117°11'0 0.0
2014-Oct-24 11:31N 32°43' W 117°11'0 0.0
2014-Oct-24 10:31N 32°43' W 117°11'0 0.0
2014-Oct-24 09:28N 32°43' W 117°11'0 0.0
2014-Oct-24 08:31N 32°43' W 117°11'0 0.0
2014-Oct-24 07:31N 32°43' W 117°11'0 0.0
2014-Oct-24 06:31N 32°43' W 117°11'0 0.0
2014-Oct-24 05:31N 32°43' W 117°11'0 0.0
2014-Oct-24 04:31N 32°43' W 117°11'0 0.0
2014-Oct-24 03:31N 32°43' W 117°11'0 0.0
2014-Oct-24 02:31N 32°43' W 117°11'0 0.0
2014-Oct-24 01:31N 32°43' W 117°11'9 1.2
2014-Oct-23 18:33N 32°37' W 117°18'1 1.2
2014-Oct-23 17:34N 32°38' W 117°19'1 1.0
2014-Oct-23 16:33N 32°38' W 117°19'2 1.5
2014-Oct-23 15:34N 32°37' W 117°18'4 3.7
2014-Oct-23 14:34N 32°38' W 117°14'6 5.6
2014-Oct-23 13:33N 32°43' W 117°12'1 0.5
2014-Oct-23 12:32N 32°43' W 117°11'0 0.0
2014-Oct-23 11:32N 32°43' W 117°11'0 0.0
2014-Oct-23 10:32N 32°43' W 117°11'0 0.0
2014-Oct-23 09:32N 32°43' W 117°11'0 0.0
2014-Oct-23 08:20N 32°43' W 117°11'0 0.0
2014-Oct-23 07:32N 32°43' W 117°11'0 0.1
2014-Oct-23 06:32N 32°43' W 117°11'0 0.1
2014-Oct-23 05:32N 32°43' W 117°11'0 0.0
2014-Oct-23 04:32N 32°43' W 117°11'0 0.0
2014-Oct-23 03:32N 32°43' W 117°11'0 0.0
2014-Oct-23 02:32N 32°43' W 117°11'0 0.0
2014-Oct-23 01:32N 32°43' W 117°11'0 0.0
2014-Oct-23 00:32N 32°43' W 117°11'0 0.0
2014-Oct-22 23:32N 32°43' W 117°11'0 0.0
2014-Oct-22 22:32N 32°43' W 117°11'0 0.0
2014-Oct-22 21:32N 32°43' W 117°11'0 0.0
2014-Oct-22 20:32N 32°43' W 117°11'0 0.0
2014-Oct-22 19:29N 32°43' W 117°11'0 0.0
2014-Oct-22 18:33N 32°43' W 117°11'0 0.0
2014-Oct-22 17:34N 32°43' W 117°11'0 0.0
2014-Oct-22 16:33N 32°43' W 117°11'0 0.0
2014-Oct-22 15:33N 32°43' W 117°11'0 0.0
2014-Oct-22 14:33N 32°43' W 117°11'0 0.0
2014-Oct-22 13:33N 32°43' W 117°11'0 0.0
2014-Oct-22 12:33N 32°43' W 117°11'0 0.0
2014-Oct-22 11:33N 32°43' W 117°11'0 0.0
2014-Oct-22 10:33N 32°43' W 117°11'0 0.0
2014-Oct-22 09:33N 32°43' W 117°11'0 0.0
2014-Oct-22 08:34N 32°43' W 117°11'0 0.0
2014-Oct-22 07:33N 32°43' W 117°11'0 0.0
2014-Oct-22 06:33N 32°43' W 117°11'0 0.0
2014-Oct-22 05:33N 32°43' W 117°11'0 0.0
2014-Oct-22 04:33N 32°43' W 117°11'0 0.0
2014-Oct-22 03:33N 32°43' W 117°11'2 2.3
2014-Oct-22 02:33N 32°42' W 117°14'7 6.8
2014-Oct-22 01:32N 32°36' W 117°17'1 1.2
2014-Oct-22 00:34N 32°36' W 117°18'1 1.3
2014-Oct-21 23:33N 32°37' W 117°19'0 0.2
2014-Oct-21 22:33N 32°37' W 117°19'2 2.3
2014-Oct-21 21:28N 32°36' W 117°16'2 2.4
2014-Oct-21 20:32N 32°35' W 117°14'0 0.0
2014-Oct-21 19:33N 32°35' W 117°14'0 0.0
2014-Oct-21 17:29N 32°35' W 117°14'0 0.1
2014-Oct-21 16:32N 32°35' W 117°14'7 6.8
2014-Oct-21 15:33N 32°35' W 117°22'7 6.1
2014-Oct-21 14:23N 32°36' W 117°14'7 8.2
2014-Oct-21 13:33N 32°43' W 117°13'1 1.2
2014-Oct-21 12:32N 32°43' W 117°11'0 0.0
2014-Oct-21 11:32N 32°43' W 117°11'0 0.0
2014-Oct-21 10:32N 32°43' W 117°11'0 0.0
2014-Oct-21 09:32N 32°43' W 117°11'0 0.0
2014-Oct-21 08:32N 32°43' W 117°11'0 0.0
2014-Oct-21 07:32N 32°43' W 117°11'0 0.0
2014-Oct-21 06:29N 32°43' W 117°11'0 0.0
2014-Oct-21 05:32N 32°43' W 117°11'0 0.0
2014-Oct-21 04:32N 32°43' W 117°11'0 0.0
2014-Oct-21 03:32N 32°43' W 117°11'0 0.0
2014-Oct-21 02:32N 32°43' W 117°11'0 0.0
2014-Oct-21 01:32N 32°43' W 117°11'3 3.4
2014-Oct-21 00:33N 32°41' W 117°14'6 2.7
2014-Oct-20 22:23N 32°35' W 117°14'  
Track history (hours):
 
Tides and Currents Weather Stations Pressure Air Temp Water Temp Dewpoint Dewpoint Depression Visibility Wind Speed Wind Dir Waves Ship Positions

Diane G

Last reported at 2014-Oct-30 22:11 UTC. Time now 2014-Oct-31 07:01 UTC.
Position N 34°09' W 119°13'.

Length 35 m; draft 2.5 m.

Type: Military. MMSI: 369970281.

Date/timePositionNaut miles runAvg speedWind from/ knotsBaromVisibWave heightAir tempDewpointWater temp
2014-Oct-30 22:11N 34°09' W 119°13'23 4.9
2014-Oct-30 17:29N 33°53' W 119°33'1 0.9
2014-Oct-30 16:32N 33°53' W 119°34'5 4.7
2014-Oct-30 15:33N 33°55' W 119°29'8 7.6
2014-Oct-30 14:28N 34°01' W 119°21'8 8.8
2014-Oct-30 13:33N 34°07' W 119°15'3 0.3
2014-Oct-30 03:09N 34°09' W 119°13'3 4.5
2014-Oct-30 02:32N 34°07' W 119°14'10 9.0
2014-Oct-30 01:28N 33°59' W 119°22'  
2014-Oct-25 10:29N 34°06' W 119°13'17 8.9
2014-Oct-25 08:34N 33°53' W 118°60'11 9.3
2014-Oct-25 07:24N 33°46' W 118°50'8 9.3
2014-Oct-25 06:33N 33°41' W 118°43'10 9.2
2014-Oct-25 05:30N 33°35' W 118°34'9 9.1
2014-Oct-25 04:33N 33°29' W 118°26'9 9.2
2014-Oct-25 03:33N 33°23' W 118°18'8 7.7
2014-Oct-25 02:33N 33°17' W 118°12'3 2.9
2014-Oct-25 01:33N 33°15' W 118°09'52 6.4
2014-Oct-24 17:26N 32°40' W 117°23'6 6.8
2014-Oct-24 16:33N 32°38' W 117°17'6 6.4
2014-Oct-24 15:34N 32°43' W 117°13'2 2.1
2014-Oct-24 14:34N 32°43' W 117°10'0 0.0
2014-Oct-24 13:34N 32°43' W 117°10'1 1.1
2014-Oct-24 12:31N 32°43' W 117°11'0 0.0
2014-Oct-24 11:31N 32°43' W 117°11'0 0.0
2014-Oct-24 10:31N 32°43' W 117°11'0 0.0
2014-Oct-24 09:28N 32°43' W 117°11'0 0.0
2014-Oct-24 08:31N 32°43' W 117°11'0 0.0
2014-Oct-24 07:31N 32°43' W 117°11'0 0.0
2014-Oct-24 06:31N 32°43' W 117°11'0 0.0
2014-Oct-24 05:31N 32°43' W 117°11'0 0.0
2014-Oct-24 04:31N 32°43' W 117°11'0 0.0
2014-Oct-24 03:31N 32°43' W 117°11'0 0.0
2014-Oct-24 02:31N 32°43' W 117°11'0 0.0
2014-Oct-24 01:31N 32°43' W 117°11'9 1.2
2014-Oct-23 18:33N 32°37' W 117°18'1 1.2
2014-Oct-23 17:34N 32°38' W 117°19'1 1.0
2014-Oct-23 16:33N 32°38' W 117°19'2 1.5
2014-Oct-23 15:34N 32°37' W 117°18'4 3.7
2014-Oct-23 14:34N 32°38' W 117°14'6 5.6
2014-Oct-23 13:33N 32°43' W 117°12'1 0.5
2014-Oct-23 12:32N 32°43' W 117°11'0 0.0
2014-Oct-23 11:32N 32°43' W 117°11'0 0.0
2014-Oct-23 10:32N 32°43' W 117°11'0 0.0
2014-Oct-23 09:32N 32°43' W 117°11'0 0.0
2014-Oct-23 08:20N 32°43' W 117°11'0 0.0
2014-Oct-23 07:32N 32°43' W 117°11'0 0.1
2014-Oct-23 06:32N 32°43' W 117°11'0 0.1
2014-Oct-23 05:32N 32°43' W 117°11'0 0.0
2014-Oct-23 04:32N 32°43' W 117°11'0 0.0
2014-Oct-23 03:32N 32°43' W 117°11'0 0.0
2014-Oct-23 02:32N 32°43' W 117°11'0 0.0
2014-Oct-23 01:32N 32°43' W 117°11'0 0.0
2014-Oct-23 00:32N 32°43' W 117°11'0 0.0
2014-Oct-22 23:32N 32°43' W 117°11'0 0.0
2014-Oct-22 22:32N 32°43' W 117°11'0 0.0
2014-Oct-22 21:32N 32°43' W 117°11'0 0.0
2014-Oct-22 20:32N 32°43' W 117°11'0 0.0
2014-Oct-22 19:29N 32°43' W 117°11'0 0.0
2014-Oct-22 18:33N 32°43' W 117°11'0 0.0
2014-Oct-22 17:34N 32°43' W 117°11'0 0.0
2014-Oct-22 16:33N 32°43' W 117°11'0 0.0
2014-Oct-22 15:33N 32°43' W 117°11'0 0.0
2014-Oct-22 14:33N 32°43' W 117°11'0 0.0
2014-Oct-22 13:33N 32°43' W 117°11'0 0.0
2014-Oct-22 12:33N 32°43' W 117°11'0 0.0
2014-Oct-22 11:33N 32°43' W 117°11'0 0.0
2014-Oct-22 10:33N 32°43' W 117°11'0 0.0
2014-Oct-22 09:33N 32°43' W 117°11'0 0.0
2014-Oct-22 08:34N 32°43' W 117°11'0 0.0
2014-Oct-22 07:33N 32°43' W 117°11'0 0.0
2014-Oct-22 06:33N 32°43' W 117°11'0 0.0
2014-Oct-22 05:33N 32°43' W 117°11'0 0.0
2014-Oct-22 04:33N 32°43' W 117°11'0 0.0
2014-Oct-22 03:33N 32°43' W 117°11'2 2.3
2014-Oct-22 02:33N 32°42' W 117°14'7 6.8
2014-Oct-22 01:32N 32°36' W 117°17'1 1.2
2014-Oct-22 00:34N 32°36' W 117°18'1 1.3
2014-Oct-21 23:33N 32°37' W 117°19'0 0.2
2014-Oct-21 22:33N 32°37' W 117°19'2 2.3
2014-Oct-21 21:28N 32°36' W 117°16'2 2.4
2014-Oct-21 20:32N 32°35' W 117°14'0 0.0
2014-Oct-21 19:33N 32°35' W 117°14'0 0.0
2014-Oct-21 17:29N 32°35' W 117°14'0 0.1
2014-Oct-21 16:32N 32°35' W 117°14'7 6.8
2014-Oct-21 15:33N 32°35' W 117°22'7 6.1
2014-Oct-21 14:23N 32°36' W 117°14'7 8.2
2014-Oct-21 13:33N 32°43' W 117°13'1 1.2
2014-Oct-21 12:32N 32°43' W 117°11'0 0.0
2014-Oct-21 11:32N 32°43' W 117°11'0 0.0
2014-Oct-21 10:32N 32°43' W 117°11'0 0.0
2014-Oct-21 09:32N 32°43' W 117°11'0 0.0
2014-Oct-21 08:32N 32°43' W 117°11'0 0.0
2014-Oct-21 07:32N 32°43' W 117°11'0 0.0
2014-Oct-21 06:29N 32°43' W 117°11'0 0.0
2014-Oct-21 05:32N 32°43' W 117°11'0 0.0
2014-Oct-21 04:32N 32°43' W 117°11'0 0.0
2014-Oct-21 03:32N 32°43' W 117°11'0 0.0
2014-Oct-21 02:32N 32°43' W 117°11'0 0.0
2014-Oct-21 01:32N 32°43' W 117°11'3 3.4
2014-Oct-21 00:33N 32°41' W 117°14'6 2.7
2014-Oct-20 22:23N 32°35' W 117°14'  

Dump ship's entire track history